OK2JV-13 Weather Reports


time (UTC)temp
C
wind
direction
speed
KPH
gust
KPH
rain 1hr
cm
rain 24hr
cm
rain mn
cm
humidity
%
barometer
mb
20260905170106 17 45 6.4 11.3 0.00 0.00 0.00 52 1017.1
20260905165102 17 90 6.4 12.9 0.00 0.00 0.00 51 1017.1
20260905164058 17 0 4.8 12.9 0.00 0.00 0.00 51 1016.8
20260905163054 17 45 4.8 6.4 0.00 0.00 0.00 50 1016.9
20260905162050 18 45 6.4 12.9 0.00 0.00 0.00 50 1016.9
20260905161046 18 0 4.8 4.8 0.00 0.00 0.00 49 1016.8
20260905160044 18 45 4.8 8.0 0.00 0.00 0.00 47 1016.6
20260905155038 18 135 6.4 8.0 0.00 0.00 0.00 46 1016.6
20260905154036 18 338 8.0 6.4 0.00 0.00 0.00 44 1016.4
20260905153030 19 90 8.0 12.9 0.00 0.00 0.00 43 1016.6
20260905152026 19 180 8.0 9.7 0.00 0.00 0.00 43 1016.6
20260905151020 19 90 8.0 16.1 0.00 0.00 0.00 42 1016.8
20260905150019 20 90 8.0 8.0 0.00 0.00 0.00 41 1016.5
20260905145013 20 135 8.0 14.5 0.00 0.00 0.00 42 1016.6
20260905144009 20 45 8.0 12.9 0.00 0.00 0.00 41 1016.4
20260905143005 20 45 9.7 11.3 0.00 0.00 0.00 42 1016.5
20260905142001 19 45 8.0 12.9 0.00 0.00 0.00 43 1016.5
20260905140959 19 45 8.0 12.9 0.00 0.00 0.00 42 1016.5
20260905135953 19 45 6.4 16.1 0.00 0.00 0.00 42 1016.6
20260905134947 20 315 8.0 8.0 0.00 0.00 0.00 41 1016.7
20260905133943 20 180 9.7 14.5 0.00 0.00 0.00 40 1016.9
20260905132939 20 270 8.0 16.1 0.00 0.00 0.00 41 1016.6
20260905131935 20 0 9.7 12.9 0.00 0.00 0.00 43 1016.5
20260905130931 20 180 8.0 17.7 0.00 0.00 0.00 42 1016.4
20260905125927 20 0 9.7 11.3 0.00 0.00 0.00 43 1016.5
20260905124923 20 180 6.4 16.1 0.00 0.00 0.00 44 1016.4
20260905123919 19 45 8.0 12.9 0.00 0.00 0.00 45 1016.4
20260905122916 19 45 8.0 8.0 0.00 0.00 0.00 44 1016.7
20260905121911 20 45 8.0 14.5 0.00 0.00 0.00 45 1016.4
20260905120908 20 338 8.0 9.7 0.00 0.00 0.00 46 1016.5
20260905115903 20 45 8.0 8.0 0.00 0.00 0.00 47 1016.5
20260905114859 18 0 8.0 3.2 0.00 0.00 0.00 51 1016.3
20260905113855 18 225 8.0 8.0 0.00 0.00 0.00 51 1016.4
20260905112851 18 45 9.7 16.1 0.00 0.00 0.00 51 1016.6
20260905111849 18 45 8.0 12.9 0.00 0.00 0.00 50 1016.4
20260905110843 18 0 9.7 19.3 0.00 0.00 0.00 52 1016.3
20260905105838 18 90 6.4 16.1 0.00 0.00 0.00 55 1016.3
20260905104835 17 45 6.4 8.0 0.00 0.00 0.00 57 1016.2
20260905103831 17 90 6.4 11.3 0.00 0.00 0.00 58 1016.1
20260905102827 17 45 8.0 6.4 0.00 0.00 0.00 63 1016.3
20260905101822 17 90 6.4 9.7 0.00 0.00 0.00 63 1016.4
20260905100821 16 0 6.4 11.3 0.00 0.00 0.00 66 1016.3
20260905095815 16 135 6.4 9.7 0.00 0.00 0.00 68 1016.3
20260905094811 16 90 4.8 6.4 0.00 0.00 0.00 70 1016.5
20260905093807 16 180 6.4 4.8 0.00 0.00 0.00 71 1016.6
20260905092803 16 135 6.4 11.3 0.00 0.00 0.00 71 1016.5
20260905091801 16 90 4.8 9.7 0.00 0.00 0.00 73 1016.3
20260905090755 15 270 4.8 8.0 0.00 0.00 0.00 75 1016.3
20260905085751 15 90 4.8 6.4 0.00 0.00 0.00 78 1016.2
20260905084746 14 158 6.4 6.4 0.00 0.00 0.00 80 1016.3
20260905083744 13 0 4.8 6.4 0.00 0.00 0.00 84 1016.3
20260905082739 12 45 6.4 9.7 0.00 0.00 0.00 83 1016.2
20260905081734 12 45 6.4 8.0 0.00 0.00 0.00 85 1016.1
20260905080731 12 45 4.8 6.4 0.00 0.00 0.00 91 1016.0
20260905075727 12 135 4.8 8.0 0.00 0.00 0.00 91 1015.8
20260905074725 12 45 3.2 4.8 0.00 0.00 0.00 91 1015.5
20260905073718 12 45 4.8 4.8 0.00 0.00 0.00 91 1015.7
20260905072715 12 90 3.2 6.4 0.00 0.00 0.00 91 1015.4
20260905071710 11 0 4.8 4.8 0.00 0.00 0.00 90 1015.5
20260905070707 11 0 4.8 6.4 0.00 0.00 0.00 90 1015.4
20260905065703 11 45 4.8 6.4 0.00 0.00 0.00 89 1015.3
20260905064659 11 315 4.8 8.0 0.00 0.00 0.00 89 1015.7
20260905063655 12 135 3.2 8.0 0.00 0.00 0.00 89 1015.8
20260905062651 12 90 3.2 4.8 0.00 0.00 0.00 89 1015.4
20260905061646 12 45 3.2 4.8 0.00 0.00 0.00 87 1015.1
20260905060642 12 90 3.2 3.2 0.00 0.00 0.00 88 1014.8
20260905055639 12 90 6.4 9.7 0.00 0.00 0.00 84 1015.0
20260905054635 12 90 4.8 6.4 0.00 0.00 0.00 84 1015.0
20260905053631 12 0 6.4 11.3 0.00 0.00 0.00 84 1014.8
20260905052627 13 0 8.0 8.0 0.00 0.00 0.00 87 1014.8
20260905051623 13 45 6.4 12.9 0.00 0.00 0.00 89 1014.7
20260905050619 13 90 3.2 8.0 0.00 0.00 0.00 89 1014.3
20260905045617 13 45 3.2 4.8 0.00 0.00 0.00 88 1014.3
20260905044611 13 90 3.2 4.8 0.00 0.00 0.00 88 1014.5
20260905043607 13 0 4.8 6.4 0.00 0.00 0.00 88 1014.4
20260905042605 13 90 4.8 4.8 0.00 0.00 0.00 87 1014.1
20260905041559 13 0 3.2 6.4 0.00 0.00 0.00 87 1013.6
20260905040557 13 45 8.0 11.3 0.00 0.00 0.00 85 1013.8
20260905035551 13 90 3.2 6.4 0.00 0.00 0.00 84 1013.5
20260905034546 14 90 4.8 6.4 0.00 0.00 0.00 83 1013.2
20260905033543 14 225 4.8 6.4 0.00 0.00 0.00 82 1013.4
20260905032538 14 45 6.4 12.9 0.00 0.00 0.00 81 1013.9
20260905031535 15 90 8.0 9.7 0.00 0.00 0.00 80 1013.8
20260905030531 15 45 4.8 12.9 0.00 0.00 0.00 80 1013.4
20260905025527 15 90 4.8 4.8 0.00 0.00 0.00 79 1013.3
20260905024522 15 90 6.4 8.0 0.00 0.00 0.00 77 1013.4
20260905023518 15 0 4.8 8.0 0.00 0.00 0.00 74 1013.2
20260905022514 16 90 3.2 4.8 0.00 0.00 0.00 72 1012.8
20260905021510 16 0 4.8 3.2 0.00 0.00 0.00 72 1012.9
20260905020507 16 45 6.4 6.4 0.00 0.00 0.00 71 1012.7
20260905015502 16 45 8.0 11.3 0.00 0.00 0.00 70 1012.8
20260905014458 16 0 8.0 12.9 0.00 0.00 0.00 70 1013.0
20260905013454 16 45 6.4 14.5 0.00 0.00 0.00 69 1012.8
20260905012450 17 0 8.0 11.3 0.00 0.00 0.00 68 1013.0
20260905011445 17 90 9.7 16.1 0.00 0.00 0.00 67 1012.9
20260905010441 17 45 9.7 19.3 0.00 0.00 0.00 63 1012.8
20260905005435 18 45 9.7 14.5 0.00 0.00 0.00 63 1012.6
20260905004430 18 45 9.7 19.3 0.00 0.00 0.00 62 1012.5
20260905003427 20 45 9.7 12.9 0.00 0.00 0.00 62 1012.5
20260905002422 20 45 9.7 16.1 0.00 0.00 0.00 60 1011.9
20260905001418 21 135 6.4 6.4 0.00 0.00 0.00 56 1011.2
20260905000413 21 90 4.8 8.0 0.00 0.00 0.00 56 1010.7
20260904235410 21 22 4.8 9.7 0.00 0.00 0.00 55 1010.6
20260904234406 21 135 4.8 6.4 0.00 0.00 0.00 55 1010.5
20260904233401 21 135 4.8 14.5 0.00 0.00 0.00 55 1010.4
20260904232358 21 68 4.8 4.8 0.00 0.00 0.00 55 1010.7
20260904231354 21 0 4.8 6.4 0.00 0.00 0.00 55 1010.5
20260904230350 21 45 4.8 6.4 0.00 0.00 0.00 55 1010.5
20260904225345 21 45 3.2 6.4 0.00 0.00 0.00 54 1010.5
20260904224342 21 135 4.8 6.4 0.00 0.00 0.00 54 1010.4
20260904223338 21 90 4.8 6.4 0.00 0.00 0.00 54 1010.4
20260904222332 21 45 3.2 8.0 0.00 0.00 0.00 54 1010.4
20260904221327 21 225 3.2 4.8 0.00 0.00 0.00 53 1010.3
20260904220323 21 90 3.2 4.8 0.00 0.00 0.00 53 1010.4
20260904215319 21 90 3.2 6.4 0.00 0.00 0.00 53 1010.5
20260904214316 21 135 3.2 4.8 0.00 0.00 0.00 53 1010.6
20260904213312 21 90 3.2 6.4 0.00 0.00 0.00 53 1010.5
20260904212308 21 225 3.2 4.8 0.00 0.00 0.00 53 1010.5
20260904211304 21 270 3.2 9.7 0.00 0.00 0.00 53 1010.5
20260904210300 21 135 3.2 4.8 0.00 0.00 0.00 53 1010.7
20260904205256 21 90 3.2 4.8 0.00 0.00 0.00 53 1010.5
20260904204252 21 135 3.2 4.8 0.00 0.00 0.00 53 1010.6
20260904203248 21 225 3.2 6.4 0.00 0.00 0.00 53 1010.7
20260904202244 21 112 3.2 3.2 0.00 0.00 0.00 53 1010.8
20260904201242 21 45 3.2 6.4 0.00 0.00 0.00 53 1010.8
20260904200235 21 135 3.2 3.2 0.00 0.00 0.00 54 1010.7
20260904195231 21 180 1.6 4.8 0.00 0.00 0.00 54 1010.8
20260904194227 21 225 0.0 3.2 0.00 0.00 0.00 54 1010.9
20260904193223 21 225 1.6 3.2 0.00 0.00 0.00 54 1011.3
20260904192219 21 180 1.6 1.6 0.00 0.00 0.00 54 1011.3
20260904191215 21 225 0.0 1.6 0.00 0.00 0.00 53 1011.4
20260904190212 22 225 0.0 3.2 0.00 0.00 0.00 53 1011.4
20260904185206 22 135 1.6 3.2 0.00 0.00 0.00 53 1011.3
20260904184202 22 135 0.0 3.2 0.00 0.00 0.00 53 1011.5
20260904183158 22 180 0.0 3.2 0.00 0.00 0.00 50 1011.5
20260904182154 22 270 1.6 3.2 0.00 0.00 0.00 49 1011.5
20260904181150 22 315 1.6 3.2 0.00 0.00 0.00 48 1011.3
20260904180147 23 270 1.6 3.2 0.00 0.00 0.00 47 1011.2
20260904175143 23 180 1.6 3.2 0.00 0.00 0.00 46 1011.0
20260904174140 23 180 3.2 3.2 0.00 0.00 0.00 46 1010.9
20260904173137 24 0 3.2 4.8 0.00 0.00 0.00 45 1010.9
20260904172131 24 90 4.8 9.7 0.00 0.00 0.00 46 1011.0
20260904171127 24 0 4.8 4.8 0.00 0.00 0.00 45 1010.9